Location: Baia Mare
(47.6567°N, 23.5850°E)
Time: 11:03:11
(UTC+03:00)

ISS - Pass Details

Date: 21 July 2018
Orbit: 402 x 408 km, 51.6° (Epoch: 19 July)

Event Time Altitude Azimuth Distance (km) Brightness Sun altitude
Rises 02:23:46 0° 289° (WNW) 2,329 0.1 -20.8°
Reaches altitude 10° 02:25:54 10° 296° (WNW) 1,468 -0.9 -20.8°
Maximum altitude 02:29:05 47° 12° (NNE) 552 -2.8 -20.6°
Drops below altitude 10° 02:32:17 10° 87° (E) 1,468 -0.8 -20.5°
Sets 02:34:25 0° 94° (E) 2,328 0.2 -20.4°
